Regional Weather Roundup
Issued by NWS

Current Version | Previous Version | Text Only | Print | Product List | Glossary On
Versions: 1 2 3 4 5 6 7 8 9 10 11 12 13 14 15 16 17 18 19 20 21 22 23 24 25 26 27
000
ASUS45 KPSR 301210
RWRAZ

ARIZONA HOURLY REGIONAL WEATHER ROUNDUP
NATIONAL WEATHER SERVICE PHOENIX AZ
500 AM MST FRI SEP 30 2022

NOTE: FAIR INDICATES FEW OR NO CLOUDS BELOW 12,000 FEET WITH NO
SIGNIFICANT WEATHER AND/OR OBSTRUCTIONS TO VISIBILITY.

AZZ001>003-036-301300-
NORTHWEST ARIZONA

CITY           SKY/WX    TMP DP  RH WIND       PRES   REMARKS
BULLHEAD CITY  CLEAR     82  57  42 S6        29.83S
KINGMAN        CLEAR     67  51  56 SE5       30.02S
6HR MIN TEMP:  65; 6HR MAX TEMP:  74;

$$

AZZ004>008-015-016-018-301300-
NORTH CENTRAL ARIZONA

CITY           SKY/WX    TMP DP  RH WIND       PRES   REMARKS
GRAND CANYON   CLEAR     42  39  89 CALM      30.23F
6HR MIN TEMP:  40; 6HR MAX TEMP:  46;

WILLIAMS       CLEAR     45  37  76 S9        30.25S
PRESCOTT       CLEAR     55  44  66 S10       30.15S
6HR MIN TEMP:  52; 6HR MAX TEMP:  62;

FLAGSTAFF      CLEAR     43  36  76 CALM      30.26S
6HR MIN TEMP:  42; 6HR MAX TEMP:  50;

PAYSON         CLEAR     55  36  47 CALM      30.17S
PAGE           CLEAR     66  44  45 S6        30.05S
6HR MIN TEMP:  65; 6HR MAX TEMP:  74;

$$

AZZ009>014-017-301300-
NORTHEAST ARIZONA

CITY           SKY/WX    TMP DP  RH WIND       PRES   REMARKS
WINSLOW        CLEAR     52  39  61 E3        30.16R
6HR MIN TEMP:  52; 6HR MAX TEMP:  64;

WINDOW ROCK    CLEAR     39  33  79 CALM      30.25F
6HR MIN TEMP:  39; 6HR MAX TEMP:  49;

SHOW LOW       CLEAR     55  28  35 S8        30.24S
$$

AZZ540-542>544-546-548-301300-
GREATER PHOENIX AREA

CITY           SKY/WX    TMP DP  RH WIND       PRES   REMARKS
PHOENIX        CLEAR     77  57  50 E7        29.88R
6HR MIN TEMP:  77; 6HR MAX TEMP:  85;

BUCKEYE        CLEAR     72  57  60 N3        29.89S
LUKE AFB       CLEAR     74  53  47 N5        29.88S
6HR MIN TEMP:  74; 6HR MAX TEMP:  82;

DEER VALLEY    CLEAR     75  52  44 E7        29.91S
6HR MIN TEMP:  73; 6HR MAX TEMP:  82;

SCOTTSDALE     CLEAR     75  52  44 E3        29.93R
6HR MIN TEMP:  74; 6HR MAX TEMP:  83;

MESA-FALCON    CLEAR     76  54  46 CALM      29.91S
6HR MIN TEMP:  74; 6HR MAX TEMP:  80;

MESA-GATEWAY   CLEAR     72  52  49 E6        29.93S
$$

AZZ539-553-301300-
SOUTHWEST MARICOPA COUNTY AND PINAL COUNTY

CITY           SKY/WX    TMP DP  RH WIND       PRES   REMARKS
CASA GRANDE    CLEAR     69  58  67 E5        29.93R
6HR MIN TEMP:  68; 6HR MAX TEMP:  79;

$$

AZZ503-504-507>509-301300-
SOUTHEAST ARIZONA

CITY           SKY/WX    TMP DP  RH WIND       PRES   REMARKS
TUCSON         PTCLDY    70  60  70 SE5       30.00S
6HR MIN TEMP:  70; 6HR MAX TEMP:  74;

DAVIS-MONTHAN  MOCLDY    68  60  74 CALM      29.98S
6HR MIN TEMP:  68; 6HR MAX TEMP:  72;

NOGALES        PTCLDY    60  58  92 E5        30.05F
6HR MIN TEMP:  60; 6HR MAX TEMP:  63;

SIERRA VISTA   MOCLDY    60  55  83 CALM      30.12S
6HR MIN TEMP:  60; 6HR MAX TEMP:  65; 6HR PCP: TRACE;

SAFFORD        CLOUDY    69  39  33 E12       30.03R
6HR MIN TEMP:  66; 6HR MAX TEMP:  70;

$$

AZZ532-301300-
SOUTHWEST ARIZONA

CITY           SKY/WX    TMP DP  RH WIND       PRES   REMARKS
YUMA           CLEAR     84  58  40 SE8       29.81R
6HR MIN TEMP:  83; 6HR MAX TEMP:  86;

$$

CAZ041-043-047-048-061-525>527-560>570-301300-
SOUTHERN CALIFORNIA

CITY           SKY/WX    TMP DP  RH WIND       PRES   REMARKS
DOWNTOWN L.A.  CLOUDY    67  64  90 CALM      29.90S
6HR MIN TEMP:  66; 6HR MAX TEMP:  67;

L.A. AIRPORT   CLOUDY    68  63  84 E3        29.90S
6HR MIN TEMP:  67; 6HR MAX TEMP:  68;

SAN DIEGO      CLOUDY    67  63  87 CALM      29.92S
6HR MIN TEMP:  67; 6HR MAX TEMP:  70;

BURBANK        CLOUDY    68  62  81 S3        29.91S
6HR MIN TEMP:  68; 6HR MAX TEMP:  71;

ONTARIO        CLEAR     64  62  93 W3        29.91S FOG
6HR MIN TEMP:  64; 6HR MAX TEMP:  71;

RIVERSIDE      CLEAR     64  62  93 SW3       29.91S FOG
6HR MIN TEMP:  64; 6HR MAX TEMP:  71;

PALM SPRINGS   CLEAR     79  49  34 N5        29.84R
6HR MIN TEMP:  78; 6HR MAX TEMP:  88;

EL CENTRO NAS  CLEAR     79  72  79 E6        29.80S
6HR MIN TEMP:  78; 6HR MAX TEMP:  89;

IMPERIAL       CLEAR     80  71  74 E7        29.78S
6HR MIN TEMP:  79; 6HR MAX TEMP:  88;

BLYTHE         CLEAR     80  59  48 SE3       29.82S
6HR MIN TEMP:  79; 6HR MAX TEMP:  88;

NEEDLES        CLEAR     82  58  43 SW7       29.84F
6HR MIN TEMP:  81; 6HR MAX TEMP:  91;

$$

NVZ020-UTZ003-301300-
SOUTHERN NEVADA-UTAH

CITY           SKY/WX    TMP DP  RH WIND       PRES   REMARKS
LAS VEGAS      CLEAR     78  40  25 S8        29.89S
6HR MIN TEMP:  78; 6HR MAX TEMP:  85;

SALT LAKE CITY MOCLDY    62  45  53 CALM      30.07S
6HR MIN TEMP:  60; 6HR MAX TEMP:  65; 6HR PCP: TRACE;

$$

NMZ009-TXZ055-301300-
NEW MEXICO-WEST TEXAS

CITY           SKY/WX    TMP DP  RH WIND       PRES   REMARKS
ALBUQUERQUE    CLEAR     58  33  39 E5        30.21S
6HR MIN TEMP:  57; 6HR MAX TEMP:  65;

EL PASO        PTCLDY    59  38  45 CALM      30.12S
6HR MIN TEMP:  58; 6HR MAX TEMP:  69;

$$


........................KEY........................
SKY/WX - SKY CONDITION/WEATHER
TMP    - TEMPERATURE IN FAHRENHEIT
DP     - DEW POINT IN FAHRENHEIT
RH     - RELATIVE HUMIDITY IN PERCENT
WIND   - DIRECTION AND SPEED IN MILES PER HOUR (MPH)
VRB    - VARIABLE WIND DIRECTION
PRES   - MEAN SEA LEVEL PRESSURE IN INCHES OF MERCURY
         F - FALLING PRESSURE   R - RISING PRESSURE
         S - STEADY PRESSURE
VSB    - VISIBILITY IN MILES
HX     - HEAT INDEX IN FAHRENHEIT
WCI    - WIND CHILL INDEX IN FAHRENHEIT
TC     - TEMPERATURE IN CELSIUS WHICH IS ALSO KNOWN AS
         TEMPERATURE IN CENTIGRADE
AFB    - AIR FORCE BASE
         LUKE AFB IS LUKE AIR FORCE BASE
         DAVIS-MONTHAN IS DAVIS-MONTHAN AIR FORCE BASE
NAS    - NAVAL AIR STATION
         EL CENTRO NAS IS EL CENTRO NAVAL AIR STATION
N/A    - NOT AVAILABLE




USA.gov is the U.S. government's official web portal to all federal, state and local government web resources and services.